QPF
0.00 0.00 0.01 0.01 0.02 0.01 0.01 0.00 0.02 0.03 0.03 0.01 0.01 0.02 0.03 0.08 0.05 0.03 0.05 0.08 0.05 0.04 0.02 0.00 0.00 0.00 0.00 0.00 0.00 0.00 0.00 0.00
0.00 0.00 0.00 0.01 0.01 0.01 0.00 0.00 0.02 0.04 0.03 0.02 0.04 0.03 0.02 0.02 0.01 0.01 0.09 0.18 0.13 0.01 0.04 0.01 0.00 0.00 0.00 0.00 0.00 0.00 0.00 0.00
0.00 0.00 0.00 0.00 0.01 0.02 0.02 0.01 0.04 0.02 0.00 0.00 0.01 0.01 0.02 0.00 0.00 0.01 0.04 0.18 0.26 0.12 0.08 0.02 0.00 0.00 0.00 0.00 0.00 0.00 0.00 0.00
0.00 0.00 0.00 0.00 0.01 0.01 0.01 0.02 0.01 0.00 0.00 0.00 0.00 0.00 0.00 0.00 0.00 0.02 0.05 0.14 0.33 0.21 0.08 0.01 0.00 0.00 0.00 0.00 0.00 0.00 0.00 0.00
0.00 0.00 0.00 0.00 0.00 0.00 0.00 0.01 0.00 0.00 0.00 0.00 0.00 0.00 0.00 0.00 0.00 0.03 0.05 0.34 0.39 0.22 0.06 0.01 0.00 0.00 0.00 0.00 0.00 0.00 0.00 0.00
0.00 0.00 0.00 0.00 0.00 0.00 0.00 0.00 0.00 0.00 0.00 0.00 0.00 0.00 0.00 0.00 0.00 0.02 0.15 0.59 0.43 0.14 0.01 0.00 0.00 0.00 0.00 0.00 0.00 0.00 0.00 0.00
0.00 0.00 0.00 0.00 0.00 0.00 0.00 0.00 0.00 0.00 0.00 0.00 0.00 0.00 0.00 0.00 0.00 0.01 0.11 0.49 0.49 0.09 0.00 0.00 0.00 0.00 0.00 0.00 0.00 0.00 0.00 0.00
0.00 0.00 0.00 0.00 0.00 0.00 0.00 0.00 0.00 0.00 0.00 0.00 0.00 0.01 0.01 0.05 0.04 0.01 0.06 0.28 0.30 0.10 0.01 0.00 0.00 0.00 0.00 0.00 0.00 0.00 0.00 0.00
0.00 0.00 0.00 0.00 0.00 0.00 0.00 0.00 0.00 0.00 0.00 0.00 0.01 0.01 0.03 0.08 0.12 0.04 0.10 0.16 0.12 0.07 0.01 0.00 0.00 0.00 0.00 0.00 0.00 0.00 0.00 0.00
0.00 0.00 0.00 0.00 0.00 0.00 0.00 0.00 0.00 0.00 0.00 0.01 0.02 0.03 0.04 0.14 0.14 0.10 0.14 0.14 0.06 0.02 0.00 0.00 0.00 0.00 0.00 0.00 0.00 0.00 0.00 0.00
0.00 0.00 0.00 0.00 0.00 0.00 0.00 0.00 0.00 0.00 0.01 0.02 0.05 0.12 0.14 0.22 0.18 0.06 0.14 0.12 0.04 0.01 0.00 0.00 0.00 0.00 0.00 0.00 0.00 0.00 0.00 0.00
0.00 0.00 0.00 0.00 0.00 0.00 0.00 0.00 0.01 0.01 0.00 0.02 0.16 0.40 0.25 0.20 0.18 0.04 0.10 0.08 0.02 0.00 0.00 0.00 0.00 0.00 0.00 0.00 0.00 0.00 0.00 0.00
0.00 0.00 0.00 0.00 0.00 0.00 0.00 0.00 0.01 0.01 0.01 0.02 0.07 0.36 0.33 0.12 0.05 0.04 0.04 0.02 0.00 0.00 0.00 0.00 0.00 0.00 0.00 0.00 0.00 0.00 0.00 0.00
0.00 0.00 0.00 0.00 0.00 0.00 0.00 0.00 0.00 0.00 0.00 0.02 0.13 0.22 0.18 0.10 0.01 0.01 0.00 0.00 0.00 0.00 0.00 0.00 0.00 0.00 0.00 0.00 0.00 0.00 0.00 0.00
0.00 0.00 0.00 0.00 0.00 0.00 0.00 0.00 0.00 0.00 0.00 0.01 0.06 0.10 0.12 0.14 0.03 0.01 0.00 0.00 0.00 0.00 0.00 0.00 0.00 0.00 0.00 0.00 0.00 0.00 0.00 0.00
0.00 0.00 0.00 0.00 0.00 0.00 0.00 0.00 0.00 0.00 0.00 0.00 0.02 0.05 0.10 0.15 0.08 0.04 0.01 0.00 0.00 0.00 0.00 0.00 0.00 0.00 0.00 0.00 0.00 0.00 0.00 0.00
0.00 0.00 0.00 0.00 0.00 0.00 0.00 0.00 0.00 0.00 0.00 0.00 0.01 0.01 0.13 0.17 0.21 0.11 0.07 0.02 0.01 0.00 0.00 0.00 0.00 0.00 0.00 0.00 0.00 0.00 0.00 0.00
0.00 0.00 0.00 0.00 0.00 0.00 0.00 0.00 0.00 0.00 0.00 0.00 0.00 0.02 0.02 0.10 0.25 0.21 0.11 0.07 0.04 0.02 0.00 0.00 0.00 0.00 0.00 0.00 0.00 0.00 0.00 0.00
0.00 0.00 0.00 0.00 0.00 0.00 0.00 0.00 0.00 0.00 0.00 0.00 0.00 0.01 0.01 0.00 0.04 0.14 0.12 0.07 0.03 0.03 0.01 0.00 0.00 0.00 0.00 0.00 0.00 0.00 0.00 0.00
0.00 0.00 0.00 0.00 0.00 0.00 0.00 0.00 0.00 0.00 0.00 0.00 0.00 0.00 0.01 0.02 0.01 0.04 0.06 0.02 0.01 0.01 0.00 0.00 0.00 0.00 0.00 0.00 0.00 0.00 0.00 0.00
MSLP
1010.47 1010.65 1010.80 1010.97 1011.29 1011.74 1012.21 1012.58 1012.72 1012.85 1013.17 1013.35 1013.63 1014.12 1014.60 1014.75 1015.66 1015.78 1016.65 1017.19 1017.32 1017.24 1018.31 1018.83 1019.18 1019.65 1020.07 1020.52 1020.83 1021.00 1021.08 1021.35
1010.54 1010.74 1010.97 1010.78 1011.16 1011.77 1012.27 1012.79 1013.01 1013.15 1013.25 1013.49 1014.03 1014.52 1014.80 1015.24 1015.59 1015.87 1016.36 1017.06 1017.37 1017.26 1018.04 1018.78 1019.27 1019.88 1020.31 1020.80 1021.03 1021.37 1021.29 1021.48
1010.53 1010.78 1011.05 1011.06 1011.07 1011.66 1012.17 1012.64 1013.07 1013.38 1013.70 1014.01 1014.35 1014.62 1015.06 1015.44 1015.72 1015.98 1016.20 1016.84 1017.35 1017.74 1017.89 1018.64 1019.48 1020.16 1020.48 1020.95 1021.13 1021.31 1021.57 1021.68
1010.45 1010.86 1010.97 1011.31 1011.32 1011.28 1012.04 1012.64 1013.12 1013.29 1013.79 1014.13 1014.37 1014.69 1015.09 1015.24 1015.32 1015.81 1016.15 1016.61 1017.28 1018.07 1018.26 1018.89 1019.62 1020.18 1020.93 1021.27 1021.18 1021.66 1021.91 1021.99
1010.30 1010.65 1010.89 1011.21 1011.71 1011.27 1011.75 1012.41 1013.01 1013.33 1013.68 1014.10 1014.43 1014.79 1015.05 1015.30 1015.44 1015.70 1016.21 1016.67 1017.78 1018.17 1018.87 1019.05 1019.61 1020.20 1020.71 1021.16 1021.53 1021.95 1022.01 1022.39
1009.88 1010.43 1010.78 1010.98 1011.50 1011.67 1011.63 1012.25 1012.78 1013.25 1013.42 1013.69 1013.97 1014.34 1014.80 1014.99 1015.32 1015.60 1016.18 1017.09 1017.94 1017.99 1018.64 1019.06 1019.86 1020.49 1020.92 1021.26 1021.69 1022.08 1022.32 1022.65
1009.47 1010.06 1010.46 1010.86 1011.37 1011.93 1011.85 1012.16 1012.55 1012.92 1013.40 1013.62 1013.78 1014.30 1014.61 1014.72 1015.32 1015.71 1016.30 1017.30 1017.67 1018.17 1018.56 1019.10 1019.89 1020.59 1021.08 1021.41 1021.80 1022.14 1022.34 1022.84
1008.91 1009.59 1010.05 1010.75 1010.95 1011.70 1011.90 1012.06 1012.38 1012.76 1013.05 1013.29 1013.49 1013.93 1014.14 1014.49 1015.19 1015.47 1016.33 1016.94 1017.88 1018.55 1018.46 1019.19 1019.81 1020.51 1021.18 1021.66 1021.84 1022.16 1022.54 1022.94
1008.60 1009.02 1009.67 1010.28 1010.76 1011.22 1011.64 1011.72 1011.97 1012.35 1012.53 1012.81 1013.20 1013.59 1013.91 1014.22 1015.02 1015.50 1015.82 1016.79 1017.55 1018.67 1019.02 1019.42 1019.86 1020.60 1021.12 1021.63 1021.99 1022.31 1022.65 1023.08
1007.99 1008.61 1009.18 1009.76 1010.45 1010.85 1011.25 1011.42 1011.72 1011.78 1012.16 1012.41 1012.87 1013.26 1013.65 1014.08 1014.50 1015.05 1015.80 1016.83 1017.85 1018.25 1018.79 1019.40 1019.93 1020.70 1021.24 1021.60 1021.92 1022.54 1022.94 1023.24
1007.05 1008.01 1008.64 1009.28 1010.05 1010.50 1010.88 1011.16 1011.46 1011.41 1011.61 1011.99 1012.35 1012.68 1013.01 1013.50 1014.05 1014.44 1015.42 1016.53 1017.65 1017.95 1018.62 1019.04 1019.84 1020.65 1021.20 1021.69 1022.23 1022.48 1022.98 1023.34
1006.19 1007.42 1008.25 1009.03 1009.69 1010.23 1010.70 1010.95 1011.19 1011.18 1011.34 1011.57 1011.88 1012.13 1012.02 1012.44 1013.20 1013.92 1014.88 1016.26 1017.24 1017.92 1018.34 1019.24 1019.78 1020.37 1021.29 1021.97 1022.49 1022.82 1023.03 1023.33
1005.49 1006.70 1007.76 1008.55 1009.44 1010.03 1010.45 1010.52 1010.90 1011.00 1011.14 1011.17 1011.57 1011.95 1011.74 1011.81 1012.69 1013.55 1014.43 1015.74 1016.56 1017.49 1018.27 1019.00 1020.03 1020.43 1021.37 1022.37 1022.93 1023.22 1023.27 1023.44
1005.03 1006.00 1007.09 1007.97 1008.75 1009.33 1009.79 1010.12 1010.62 1010.80 1011.02 1011.06 1011.27 1011.56 1011.93 1012.30 1012.95 1013.79 1014.80 1015.75 1016.61 1017.26 1017.88 1018.82 1019.62 1020.31 1020.33 1021.49 1022.46 1023.22 1023.40 1023.49
1004.15 1005.16 1006.27 1007.38 1008.23 1009.08 1009.61 1009.95 1010.54 1010.66 1010.89 1011.04 1011.15 1011.68 1012.22 1012.62 1013.05 1013.87 1014.76 1015.48 1016.12 1016.87 1017.51 1018.18 1018.96 1019.90 1020.31 1020.13 1021.25 1021.45 1022.46 1023.18
1004.08 1005.08 1005.77 1006.82 1007.72 1008.54 1008.85 1009.12 1009.73 1009.94 1010.38 1010.96 1011.16 1011.64 1012.18 1012.62 1013.09 1013.77 1014.54 1015.26 1015.97 1016.57 1017.26 1017.82 1018.30 1019.16 1020.09 1020.16 1020.01 1020.25 1021.34 1022.71
1003.45 1004.59 1005.77 1006.50 1007.23 1007.97 1008.37 1008.89 1009.26 1009.65 1010.23 1010.84 1011.13 1011.56 1011.86 1012.44 1013.06 1013.81 1014.55 1015.23 1016.02 1016.58 1017.17 1017.65 1018.01 1018.50 1019.11 1019.64 1019.90 1020.28 1020.51 1021.02
1002.95 1003.89 1005.04 1006.20 1006.98 1007.52 1007.84 1008.51 1009.08 1009.41 1010.01 1010.61 1011.11 1011.41 1012.03 1012.36 1012.78 1013.93 1014.52 1015.04 1015.68 1016.20 1016.91 1017.37 1017.74 1018.20 1018.57 1018.82 1019.00 1019.32 1019.93 1020.36
1002.28 1003.22 1004.33 1005.56 1006.62 1007.25 1007.63 1008.34 1008.85 1009.04 1009.60 1010.25 1010.88 1011.41 1011.75 1012.37 1012.87 1013.61 1014.30 1014.65 1015.50 1016.11 1016.84 1017.23 1017.45 1017.57 1017.95 1018.29 1018.63 1018.56 1018.88 1019.42
1001.91 1002.72 1003.59 1004.89 1006.03 1007.02 1007.51 1008.12 1008.39 1008.65 1009.18 1009.89 1010.43 1011.18 1011.57 1012.22 1012.71 1013.29 1013.83 1014.35 1015.28 1016.07 1016.81 1016.97 1017.15 1017.46 1017.72 1018.00 1018.26 1018.47 1018.64 1018.71
Thickness
5708 5705 5702 5699 5694 5689 5683 5679 5676 5675 5673 5672 5670 5667 5665 5664 5654 5657 5652 5648 5649 5654 5647 5646 5650 5650 5651 5651 5653 5655 5655 5655
5704 5700 5696 5696 5692 5686 5678 5672 5670 5669 5668 5667 5663 5660 5657 5652 5650 5652 5650 5644 5643 5647 5644 5640 5644 5645 5646 5646 5649 5649 5650 5651
5700 5697 5691 5689 5691 5684 5676 5670 5665 5662 5659 5658 5655 5652 5649 5646 5645 5646 5647 5642 5638 5639 5640 5637 5638 5638 5641 5641 5643 5643 5644 5645
5697 5692 5688 5682 5683 5683 5674 5667 5661 5659 5654 5650 5648 5644 5640 5639 5641 5641 5641 5640 5637 5632 5633 5634 5634 5633 5632 5634 5636 5635 5637 5638
5695 5690 5684 5680 5674 5679 5674 5666 5659 5654 5651 5648 5644 5640 5637 5634 5634 5636 5635 5634 5629 5628 5626 5628 5630 5628 5628 5628 5629 5629 5632 5630
5693 5688 5682 5678 5670 5668 5670 5663 5656 5651 5648 5645 5642 5637 5631 5630 5629 5631 5629 5625 5623 5626 5623 5624 5623 5622 5622 5623 5624 5624 5624 5625
5691 5686 5680 5675 5669 5661 5662 5660 5654 5648 5644 5640 5637 5631 5627 5624 5624 5624 5623 5620 5618 5621 5621 5621 5620 5619 5618 5619 5617 5618 5621 5618
5691 5685 5680 5671 5668 5660 5657 5654 5651 5645 5641 5637 5632 5627 5624 5621 5618 5620 5615 5618 5614 5615 5617 5616 5616 5615 5613 5613 5614 5615 5615 5614
5688 5685 5678 5671 5665 5660 5653 5652 5649 5644 5640 5635 5629 5622 5618 5618 5616 5615 5615 5614 5613 5609 5609 5610 5610 5609 5608 5607 5608 5609 5609 5609
5688 5683 5677 5671 5663 5658 5653 5649 5646 5644 5637 5632 5625 5619 5615 5614 5614 5611 5611 5611 5609 5610 5608 5607 5606 5603 5603 5604 5605 5603 5603 5603
5690 5683 5676 5670 5662 5656 5651 5646 5643 5642 5636 5629 5623 5617 5613 5611 5610 5612 5611 5609 5607 5608 5605 5605 5603 5601 5601 5601 5599 5600 5598 5597
5692 5682 5675 5667 5660 5653 5648 5645 5640 5638 5634 5628 5623 5616 5615 5614 5614 5614 5613 5610 5607 5605 5603 5600 5599 5599 5595 5593 5593 5591 5592 5592
5692 5681 5673 5666 5657 5650 5644 5643 5638 5635 5632 5627 5622 5614 5616 5619 5617 5616 5615 5612 5611 5606 5602 5598 5596 5597 5591 5586 5585 5584 5585 5584
5688 5681 5673 5665 5658 5652 5646 5643 5637 5634 5629 5625 5621 5616 5614 5614 5615 5614 5612 5612 5609 5605 5604 5600 5599 5594 5597 5588 5580 5578 5579 5578
5689 5682 5674 5665 5658 5650 5643 5640 5634 5632 5627 5624 5622 5615 5612 5612 5614 5613 5610 5611 5609 5607 5605 5605 5600 5595 5594 5596 5583 5587 5579 5575
5683 5676 5673 5665 5657 5650 5645 5643 5636 5634 5629 5624 5621 5617 5614 5613 5613 5612 5610 5608 5607 5606 5604 5603 5601 5595 5590 5592 5593 5593 5582 5570
5680 5673 5667 5662 5656 5650 5644 5641 5638 5633 5629 5624 5621 5618 5615 5611 5609 5608 5607 5605 5603 5602 5600 5599 5598 5596 5592 5587 5586 5583 5581 5578
5677 5672 5666 5659 5653 5649 5644 5640 5634 5631 5626 5623 5620 5617 5612 5610 5609 5604 5603 5603 5601 5598 5596 5595 5593 5591 5590 5588 5586 5583 5579 5575
5677 5671 5666 5659 5651 5646 5642 5637 5633 5632 5627 5621 5619 5615 5615 5609 5607 5603 5600 5599 5596 5593 5591 5590 5589 5589 5587 5585 5584 5585 5583 5578
5672 5669 5666 5658 5651 5642 5638 5634 5633 5632 5628 5622 5619 5614 5613 5609 5607 5603 5600 5598 5593 5589 5585 5585 5586 5584 5583 5582 5581 5580 5579 5579